Location: Apple Hill Campground
(44.2915°N, 71.6726°W)
Time: 17:34:44
(UTC+00:00)

Envisat - Pass Details

Date: 11 October 2024
Orbit: 761 x 763 km, 98.3° (Epoch: 07 November)

Event Time Altitude Azimuth Distance (km) Brightness Sun altitude
Rises 09:23:09 0° 359° (N) 3,237 6.3 -17.6°
Reaches altitude 10° 09:26:06 10° 341° (NNW) 2,306 5.3 -17.1°
Enters shadow 09:28:59 18° 306° (NW) 1,815 4.5 -16.6°
